Location: Lima
(44.6384°N, 112.5920°W)
Time: 01:44:57
(UTC+00:00)

CAS-4A - Pass Details

Date: 23 April 2024
Orbit: 475 x 491 km, 43.0° (Epoch: 24 May)

Event Time Altitude Azimuth Distance (km) Brightness Sun altitude
Exits shadow 09:23:17 15° 94° (E) 1,379 ? -27.0°
Drops below altitude 10° 09:24:03 10° 90° (E) 1,663 ? -26.9°
Sets 09:26:18 0° 84° (E) 2,549 ? -26.7°
